Hourly Weather Roundup
Issued by NWS Central Illinois

Home | Current Version | Previous Version | Text Only | Print | Product List | Glossary On
Versions: 1 2 3 4 5 6 7 8 9 10 11 12 13 14 15 16 17 18 19 20 21 22 23 24 25 26 27 28 29 30 31 32 33 34 35 36 37 38 39 40 41 42 43 44 45 46 47 48 49 50
000
NZUS43 KILX 050110
HWRILX

AREA WEATHER ROUNDUP
NATIONAL WEATHER SERVICE, LINCOLN IL
800 PM CDT MON MAY 04 2015


CITY           SKY/WX    TMP DP  RH WIND       PRES   REMARKS
BLOOMINGTON    MOCLDY    69  65  87 E9        30.11F
CHAMPAIGN      MOCLDY    69  61  75 NE12      30.12R
DANVILLE       CLOUDY    63  61  93 E3        30.11R
DECATUR        CLOUDY    72  62  71 NE10      30.09R
EFFINGHAM      MOCLDY    75  53  46 SE5       30.11R
FLORA          CLEAR     74  55  50 S6        30.11R
GALESBURG      CLOUDY    67  64  89 E6        30.08S
JACKSONVILLE   CLOUDY    80  59  49 S3        30.06R HX  80
LACON          CLOUDY    71  61  71 E7        30.08S
LAWRENCEVILLE  PTCLDY    73  56  54 S7        30.12R
LITCHFIELD     CLEAR     73  56  55 S8        30.07S
$$


CITY           SKY/WX    TMP DP  RH WIND       PRES   REMARKS
LINCOLN        CLOUDY    73  64  73 E9        30.06S
MACOMB         CLOUDY    65  62  89 E7        30.09S
MATTOON        MOCLDY    75  57  53 S5        30.10R
MT CARMEL AP   CLEAR     79  46  31 S8        30.12R
OLNEY-NOBLE AP PTCLDY    75  55  50 S5        30.11R
PARIS          CLOUDY    68  61  76 E9        30.13R
PEORIA         LGT RAIN  72  63  73 E6        30.08S
PONTIAC        PTCLDY    69  64  85 E9        30.12S
RANTOUL        MOCLDY    69  65  86 E7        30.13R
ROBINSON       PTCLDY    74  55  50 S3        30.12R
SPRINGFIELD    CLOUDY    77  59  53 CALM      30.07R
TAYLORVILLE    CLOUDY    75  55  50 S7        30.07S
$$

...REGIONAL REPORTS...


CITY           SKY/WX    TMP DP  RH WIND       PRES   REMARKS
CHICAGO O`HARE MOCLDY    57  47  69 NE8       30.17R
KANKAKEE       CLOUDY    66  62  87 E6        30.14R
MOLINE         TSTM      68  61  78 E13       30.07S
MOUNT VERNON   PTCLDY   N/A N/A N/A S6        30.10S
PITTSFIELD     PTCLDY    77  58  53 E3        30.06S
QUINCY         MOCLDY    75  60  59 CALM      30.05S
ROCKFORD       MOCLDY    67  55  65 E10       30.14R
$$


CITY           SKY/WX    TMP DP  RH WIND       PRES   REMARKS
BURLINGTON     CLOUDY    67  62  84 E8        30.04F THUNDER
CEDAR RAPIDS   CLOUDY    67  63  87 NE8       30.07F
DES MOINES     LGT RAIN  66  61  84 NE10      30.08R
KIRKSVILLE     CLOUDY    73  61  65 SE5       30.04S
OTTUMWA        LGT RAIN  69  64  84 NE9       30.04S
ST LOUIS       MOCLDY    82  53  36 S7        30.06R HX  81
$$


CITY           SKY/WX    TMP DP  RH WIND       PRES   REMARKS
TERRE HAUTE    CLOUDY    75  59  57 S3        30.12R
EVANSVILLE     PTCLDY    78  54  43 S8        30.14R
INDIANAPOLIS   CLOUDY    66  58  75 NE14      30.14S
LAFAYETTE      MOCLDY    62  60  93 E6        30.14R
MADISON        MOCLDY    66  47  50 SE13      30.14R
MILWAUKEE      MOCLDY    51  37  58 N6        30.18R
$$




USA.gov is the U.S. government's official web portal to all federal, state and local government web resources and services.